[[{"header":{"parameterUnit":"m.s-1","parameterCategory":2,"la1":30.2991,"la2":30.254,"lo1":-89.0895,"lo2":-89.0444,"dy":0.0017,"dx":0.0017,"nx":28,"ny":28,"refTime":"2025-12-17T09:00:00:Z","depth":"0","parameterNumber":2,"parameterNumberName":"U-component_of_CURRENTS"},"data":[0,0,0,0,0,0,0,0,0,0,0,0,0,0,0,0,0,0,0,0,0,0,0,0,0,0,0,0,0,0,0,0,0,0,0,0,0,0,0,0,0,0,0,0,0,0,0,0,0,0,0,0,0,0,0,0,0,0,0.2362,0.2362,0,0.2382,0.2382,0.2382,0.2361,0.236,0.2359,0.2359,0.2315,0.2314,0.2313,0,0,0,0,0,0,0,0,0,0,0,0,0,0.2322,0.2323,0.2362,0.2362,0.2363,0.2382,0.2382,0.2382,0.2361,0.236,0.2359,0.2359,0.2315,0.2314,0.2313,0,0,0,0,0,0,0,0,0,0,0,0,0,0.2338,0.2323,0.2362,0.2356,0.2356,0.2382,0.2382,0.2382,0.2361,0.236,0.2359,0.2358,0.2315,0.2314,0.2313,0.2324,0,0,0.231,0.231,0,0,0,0,0,0,0,0,0.2337,0.2339,0.2357,0.2357,0.2357,0.237,0.2352,0.236,0.2361,0.2356,0.2359,0.2358,0.233,0.2327,0.233,0.2322,0.232,0.231,0.231,0.2309,0.2309,0,0,0,0,0,0,0,0.2336,0.2338,0.2367,0.2357,0.2357,0.2359,0.236,0.2353,0.2344,0.2357,0.2356,0.2363,0.2329,0.2331,0.2329,0.232,0.231,0.2309,0.2309,0.2308,0.233,0.2331,0,0,0,0,0,0,0.2339,0.2337,0.2366,0.2368,0.2348,0.2361,0.2361,0.2364,0.2346,0.2343,0.2363,0.2362,0.2333,0.233,0.2327,0.235,0.2309,0.2308,0.2308,0.2328,0.233,0.2331,0,0,0,0,0,0,0.2338,0.2341,0.2365,0.2355,0.2359,0.2362,0.2366,0.2365,0.2368,0.2352,0.2347,0.2367,0.2332,0.2328,0.2328,0.2347,0.2308,0.2307,0.2327,0.2329,0.233,0.2387,0,0,0,0,0,0,0.2337,0.2341,0.2344,0.2355,0.2359,0.238,0.2367,0.2366,0.2375,0.2373,0.2353,0.2348,0.2331,0.233,0.2327,0.2345,0.2306,0.2326,0.2328,0.233,0.2384,0.2391,0.2397,0,0,0,0,0,0.2335,0.2338,0.2344,0.2348,0.2364,0.2381,0.2383,0.2381,0.2376,0.2379,0.2371,0.2349,0.2341,0.233,0.2326,0.2345,0.2325,0.2327,0.233,0.2381,0.2389,0.2396,0,0,0,0,0,0,0.2317,0.2337,0.2343,0.2351,0.2368,0.2379,0.2384,0.2387,0.2385,0.2382,0.2362,0.2357,0.2365,0.2349,0.2337,0.2358,0.233,0.2332,0.2371,0.2378,0.2385,0.2393,0.2305,0,0,0,0,0,0.2319,0.2327,0.2349,0.2355,0.2367,0.2379,0.2386,0.2389,0.2392,0.239,0.2378,0.2371,0.2375,0.2371,0.2366,0.2376,0.2389,0.2387,0.2393,0.2399,0.2404,0.2447,0.2458,0.234,0.234,0.2339,0,0,0.2314,0.2327,0.233,0.2353,0.2366,0.2384,0.238,0.2395,0.2409,0.2386,0.2393,0.2391,0.2383,0.2396,0.2398,0.2383,0.2442,0.2402,0.2406,0.2409,0.2451,0.2463,0.2473,0.2341,0.2341,0.2341,0,0,0.2312,0.2322,0.2332,0.2349,0.2376,0.2387,0.2395,0.2412,0.2418,0.2432,0.2425,0.2439,0.2428,0.2438,0.244,0.2479,0.2475,0.2474,0.2511,0.2554,0.2564,0.2573,0.262,0.2633,0.2477,0.2477,0.2477,0,0.2306,0.2323,0.2338,0.2356,0.2372,0.2391,0.241,0.2424,0.2437,0.2451,0.2437,0.2462,0.2453,0.2489,0.2503,0.2494,0.2518,0.2482,0.2563,0.2572,0.258,0.2626,0.2639,0.248,0.248,0.2479,0.2479,0,0.2317,0.2332,0.234,0.237,0.2388,0.2408,0.2436,0.2454,0.2465,0.248,0.2515,0.2519,0.2533,0.254,0.2531,0.259,0.2589,0.2567,0.2545,0.2596,0.2641,0.2654,0.2484,0.2483,0.2482,0.2482,0,0,0.2296,0.234,0.2342,0.2362,0.2399,0.2415,0.2449,0.2489,0.2518,0.2535,0.2577,0.2595,0.2603,0.2607,0.261,0.2649,0.2733,0.2636,0.2637,0.2685,0.2839,0.2809,0.282,0.2728,0.273,0.2731,0.2852,0,0.2302,0.2335,0.2357,0.2389,0.2411,0.2443,0.2473,0.251,0.2542,0.2586,0.2615,0.2649,0.2628,0.2647,0.2684,0.2721,0.2767,0.2703,0.2779,0.2782,0.2751,0.2834,0.2612,0.2697,0.2865,0.2867,0.2868,0,0.2302,0.2328,0.236,0.2408,0.2421,0.2441,0.2502,0.2534,0.2601,0.263,0.2676,0.2697,0.2763,0.2734,0.2831,0.2792,0.282,0.2848,0.2852,0.2811,0.2776,0.267,0.2714,0.2642,0.2888,0.2886,0.2885,0,0.2277,0.2326,0.2352,0.2368,0.2425,0.2448,0.2479,0.2542,0.2575,0.2666,0.2697,0.2774,0.2811,0.2868,0.2915,0.2883,0.3025,0.2982,0.2988,0.2986,0.2804,0.2783,0.2785,0.3057,0.3056,0.3056,0.3056,0,0.2267,0.2287,0.2342,0.2355,0.2389,0.2435,0.2478,0.2528,0.26,0.2659,0.2712,0.2775,0.2845,0.2923,0.296,0.3025,0.3061,0.3019,0.3023,0.282,0.2799,0.2732,0.2705,0.306,0.3059,0.3059,0.3058,0,0.2227,0.2266,0.2295,0.2356,0.2374,0.2394,0.2456,0.2497,0.2567,0.2651,0.2682,0.279,0.2909,0.2978,0.3093,0.3075,0.3052,0.3157,0.2922,0.2895,0.2808,0.2792,0.2756,0.2665,0.3182,0.3182,0.3182,0,0.2213,0.2225,0.2277,0.2296,0.2321,0.236,0.2394,0.247,0.2527,0.2667,0.2717,0.2845,0.2923,0.3069,0.3084,0.3154,0.3076,0.299,0.2881,0.28,0.2785,0.2715,0.2635,0.267,0.2666,0.2663,0.266,0,0.2185,0.2199,0.2224,0.2255,0.2288,0.2318,0.2381,0.2411,0.2531,0.2597,0.2712,0.2778,0.2909,0.2877,0.2962,0.2973,0.281,0.2925,0.2883,0.2434,0.2311,0.2224,0.2615,0.263,0.2633,0.2635,0.2637,0.2638,0.216,0.2157,0.2186,0.221,0.2247,0.2269,0.2255,0.234,0.2396,0.2469,0.2624,0.2657,0.2662,0.2735,0.2744,0.2604,0.2658,0.2474,0.2481,0.2436,0.2275,0.2624,0.2617,0.262,0.2623,0.2625,0.2627,0,0.2117,0.2121,0.2144,0.2159,0.2164,0.2199,0.2241,0.2213,0.2236,0.2356,0.2409,0.238,0.2329,0.2349,0.2246,0.2141,0.2028,0.2088,0.1895,0.1854,0.2185,0.2085,0.1908,0.1908,0.1908,0.1908,0.1908,0.1908,0.2095,0.208,0.2082,0.2066,0.2075,0.2017,0.2003,0.1988,0.2035,0.2011,0.1992,0.2022,0.2081,0.2025,0.1897,0.1834,0.169,0.1588,0.1683,0.1866,0.19,0.1933,0.1833,0.1606,0.1606,0.1186,0.1183,0.1181]},{"header":{"parameterUnit":"m.s-1","parameterCategory":2,"la1":30.2991,"la2":30.254,"lo1":-89.0895,"lo2":-89.0444,"dy":0.0017,"dx":0.0017,"nx":28,"ny":28,"refTime":"2025-12-17T09:00:00:Z","depth":"0","parameterNumber":3,"parameterNumberName":"V-component_of_CURRENTS"},"data":[0,0,0,0,0,0,0,0,0,0,0,0,0,0,0,0,0,0,0,0,0,0,0,0,0,0,0,0,0,0,0,0,0,0,0,0,0,0,0,0,0,0,0,0,0,0,0,0,0,0,0,0,0,0,0,0,0,0,-0.0347,-0.0348,0,-0.043,-0.0431,-0.0432,-0.0458,-0.0457,-0.0457,-0.0456,-0.0482,-0.0483,-0.0484,0,0,0,0,0,0,0,0,0,0,0,0,0,-0.028,-0.0281,-0.0347,-0.0348,-0.0349,-0.043,-0.0432,-0.0433,-0.0458,-0.0457,-0.0457,-0.0456,-0.0482,-0.0483,-0.0484,0,0,0,0,0,0,0,0,0,0,0,0,0,-0.0331,-0.0281,-0.0347,-0.0371,-0.0374,-0.043,-0.0432,-0.0433,-0.0458,-0.0457,-0.0457,-0.0456,-0.0481,-0.0483,-0.0484,-0.051,0,0,-0.049,-0.049,0,0,0,0,0,0,0,0,-0.0328,-0.0334,-0.0367,-0.0369,-0.0373,-0.0432,-0.0417,-0.0456,-0.0458,-0.0427,-0.0456,-0.0456,-0.046,-0.0463,-0.0483,-0.0511,-0.0512,-0.049,-0.0491,-0.0492,-0.0492,0,0,0,0,0,0,0,-0.0325,-0.0331,-0.0381,-0.0368,-0.0371,-0.0401,-0.0407,-0.0425,-0.0446,-0.043,-0.0431,-0.044,-0.0461,-0.0481,-0.0483,-0.0512,-0.049,-0.0491,-0.0492,-0.0493,-0.053,-0.053,0,0,0,0,0,0,-0.031,-0.0327,-0.0378,-0.0383,-0.0347,-0.0403,-0.0409,-0.0415,-0.0447,-0.0452,-0.044,-0.044,-0.0479,-0.0481,-0.0484,-0.0485,-0.0492,-0.0493,-0.0494,-0.053,-0.053,-0.053,0,0,0,0,0,0,-0.0308,-0.0314,-0.0375,-0.0357,-0.0366,-0.0404,-0.041,-0.0417,-0.0427,-0.0456,-0.0459,-0.0443,-0.0478,-0.0482,-0.0489,-0.0487,-0.0494,-0.0496,-0.053,-0.053,-0.053,-0.0507,0,0,0,0,0,0,-0.0306,-0.0313,-0.0312,-0.0356,-0.0367,-0.039,-0.0411,-0.0419,-0.0434,-0.0435,-0.0459,-0.0462,-0.0478,-0.0486,-0.0491,-0.049,-0.0497,-0.053,-0.053,-0.053,-0.0507,-0.0506,-0.0504,0,0,0,0,0,-0.0303,-0.0296,-0.0311,-0.0318,-0.0364,-0.0389,-0.0397,-0.0423,-0.0434,-0.0431,-0.0452,-0.046,-0.0489,-0.0488,-0.0493,-0.0492,-0.053,-0.053,-0.053,-0.0508,-0.0506,-0.0504,0,0,0,0,0,0,-0.0264,-0.03,-0.0317,-0.0321,-0.0346,-0.0392,-0.0394,-0.0418,-0.0436,-0.0434,-0.0462,-0.0466,-0.047,-0.0485,-0.0483,-0.0503,-0.0511,-0.0512,-0.0492,-0.049,-0.0489,-0.0461,-0.0498,0,0,0,0,0,-0.0257,-0.0262,-0.0301,-0.0304,-0.0312,-0.0355,-0.0369,-0.0388,-0.0412,-0.042,-0.044,-0.046,-0.0478,-0.0485,-0.05,-0.0513,-0.0512,-0.0515,-0.0514,-0.0512,-0.0493,-0.0503,-0.05,-0.053,-0.053,-0.053,0,0,-0.0245,-0.0264,-0.0268,-0.0296,-0.0319,-0.0326,-0.0361,-0.0374,-0.038,-0.0419,-0.0426,-0.0452,-0.0479,-0.0492,-0.0495,-0.0502,-0.0503,-0.0512,-0.0511,-0.0492,-0.0503,-0.05,-0.0497,-0.053,-0.053,-0.053,0,0,-0.0218,-0.0236,-0.0231,-0.0247,-0.0275,-0.0299,-0.0298,-0.0338,-0.0352,-0.0369,-0.0399,-0.042,-0.0447,-0.047,-0.0486,-0.0484,-0.0492,-0.0493,-0.0466,-0.0477,-0.0474,-0.0472,-0.0463,-0.046,-0.0496,-0.0496,-0.0496,0,-0.0203,-0.0204,-0.0233,-0.023,-0.0239,-0.0281,-0.0276,-0.0299,-0.0337,-0.0343,-0.0357,-0.0407,-0.0435,-0.0455,-0.046,-0.0479,-0.0479,-0.0473,-0.0474,-0.0472,-0.0469,-0.0461,-0.0458,-0.0494,-0.0495,-0.0495,-0.0495,0,-0.0174,-0.0177,-0.0171,-0.0182,-0.0193,-0.0194,-0.0227,-0.0236,-0.026,-0.0286,-0.0306,-0.0355,-0.0378,-0.0404,-0.0434,-0.0441,-0.0443,-0.0468,-0.0476,-0.0465,-0.0457,-0.0454,-0.0493,-0.0493,-0.0494,-0.0494,0,0,-0.0134,-0.015,-0.0146,-0.0146,-0.0168,-0.0172,-0.0174,-0.019,-0.0182,-0.0227,-0.0225,-0.0283,-0.031,-0.0329,-0.0378,-0.04,-0.0399,-0.0427,-0.0428,-0.0412,-0.0405,-0.0396,-0.0393,-0.0427,-0.0427,-0.0427,-0.0403,0,-0.0103,-0.0089,-0.0105,-0.0089,-0.0085,-0.0114,-0.0109,-0.0126,-0.0146,-0.015,-0.0208,-0.0224,-0.0282,-0.0299,-0.0329,-0.038,-0.0391,-0.0401,-0.0422,-0.0422,-0.0411,-0.0389,-0.0356,-0.0331,-0.0401,-0.04,-0.04,0,-0.0065,-0.0063,-0.0044,-0.0044,-0.0042,-0.0034,-0.0028,-0.0032,-0.0049,-0.0063,-0.0091,-0.0132,-0.0174,-0.0227,-0.0287,-0.0291,-0.0334,-0.0377,-0.0378,-0.0371,-0.0408,-0.0355,-0.0324,-0.0429,-0.0396,-0.0396,-0.0396,0,-0.0019,-0.0016,0.0001,-0.0,-0.0005,0.0006,0.0007,0.0001,0.0011,-0.0007,0.0002,-0.0054,-0.0072,-0.0141,-0.0226,-0.0256,-0.028,-0.0334,-0.0361,-0.0361,-0.0334,-0.0332,-0.0399,-0.0359,-0.0359,-0.0359,-0.0359,0,0.0021,0.0035,0.0026,0.0037,0.007,0.0052,0.0089,0.0083,0.009,0.013,0.0052,0.0079,-0.0051,-0.0087,-0.0179,-0.0243,-0.0238,-0.0335,-0.0351,-0.0325,-0.0322,-0.0416,-0.0495,-0.0358,-0.0358,-0.0359,-0.0359,0,0.0066,0.0057,0.008,0.0086,0.0093,0.0119,0.0143,0.0173,0.0168,0.022,0.0219,0.0185,0.0149,0.0029,-0.0068,-0.0165,-0.0299,-0.0269,-0.0219,-0.0229,-0.0375,-0.0453,-0.0525,-0.0574,-0.0299,-0.0299,-0.0298,0,0.0085,0.0102,0.0125,0.015,0.0155,0.0185,0.0216,0.0215,0.0257,0.0306,0.0347,0.0323,0.0344,0.0202,0.0032,-0.0108,-0.0247,-0.0199,-0.0261,-0.0358,-0.0458,-0.0521,-0.0563,-0.0215,-0.0214,-0.0213,-0.0212,0,0.0128,0.0141,0.0167,0.0216,0.0252,0.0289,0.0336,0.0384,0.0415,0.0472,0.0568,0.0592,0.0471,0.0355,0.0137,0.0019,-0.0277,-0.0188,-0.0304,-0.0401,-0.0457,-0.0519,-0.0248,-0.0205,-0.0206,-0.0206,-0.0207,-0.0207,0.017,0.02,0.0242,0.029,0.0333,0.0403,0.0456,0.0529,0.0625,0.0733,0.075,0.0814,0.0606,0.0328,0.016,-0.0167,-0.0211,-0.029,-0.0375,-0.0427,-0.0486,-0.0188,-0.0161,-0.0161,-0.0162,-0.0162,-0.0162,0,0.0223,0.0258,0.031,0.0374,0.0434,0.0442,0.0542,0.0608,0.0751,0.0861,0.095,0.0882,0.0653,0.0352,-0.0076,-0.0313,-0.0418,-0.0464,-0.0554,-0.0588,-0.0323,-0.0331,-0.032,-0.032,-0.032,-0.032,-0.032,-0.0319,0.0256,0.032,0.0344,0.0449,0.0497,0.0579,0.0644,0.0758,0.0851,0.0969,0.1,0.0995,0.0748,0.0069,-0.0421,-0.0541,-0.0735,-0.0762,-0.0879,-0.0712,-0.0702,-0.0693,-0.0719,-0.0789,-0.079,-0.1092,-0.1095,-0.1098]}],[{"header":{"parameterUnit":"m.s-1","parameterCategory":2,"la1":30.2991,"la2":30.254,"lo1":-89.0895,"lo2":-89.0444,"dy":0.0017,"dx":0.0017,"nx":28,"ny":28,"refTime":"2025-12-17T09:00:00:Z","depth":"2","parameterNumber":2,"parameterNumberName":"U-component_of_CURRENTS"},"data":[0,0,0,0,0,0,0,0,0,0,0,0,0,0,0,0,0,0,0,0,0,0,0,0,0,0,0,0,0,0,0,0,0,0,0,0,0,0,0,0,0,0,0,0,0,0,0,0,0,0,0,0,0,0,0,0,0,0,0.2108,0.2108,0,0.2064,0.2063,0.2062,0.2087,0.2088,0.209,0.2091,0.2151,0.2151,0.2152,0,0,0,0,0,0,0,0,0,0,0,0,0,0.2093,0.2094,0.2108,0.2108,0.2108,0.2064,0.2063,0.2062,0.2086,0.2088,0.209,0.2092,0.2151,0.2151,0.2152,0,0,0,0,0,0,0,0,0,0,0,0,0,0.2076,0.2094,0.2108,0.2118,0.2118,0.2064,0.2063,0.2062,0.2086,0.2088,0.2091,0.2093,0.2151,0.2151,0.2152,0.2105,0,0,0.2152,0.2152,0,0,0,0,0,0,0,0,0.2077,0.2076,0.2116,0.2117,0.2118,0.2087,0.208,0.2083,0.2085,0.2094,0.2091,0.2094,0.214,0.2141,0.2121,0.2108,0.2111,0.2152,0.2152,0.2152,0.2152,0,0,0,0,0,0,0,0.2078,0.2077,0.2087,0.2116,0.2117,0.2083,0.2084,0.2079,0.2103,0.2093,0.2096,0.2097,0.2141,0.212,0.2123,0.2111,0.2152,0.2152,0.2152,0.2152,0.2187,0.2188,0,0,0,0,0,0,0.2095,0.2079,0.2088,0.2086,0.2107,0.2082,0.2083,0.2091,0.2101,0.2105,0.2095,0.2098,0.2119,0.2122,0.2125,0.2192,0.2152,0.2152,0.2153,0.2186,0.2187,0.2188,0,0,0,0,0,0,0.2095,0.2097,0.209,0.2084,0.2081,0.2081,0.2089,0.2089,0.2106,0.2102,0.2108,0.2118,0.2121,0.2125,0.2166,0.2191,0.2153,0.2153,0.2185,0.2187,0.2188,0.2249,0,0,0,0,0,0,0.2095,0.2097,0.2098,0.2085,0.2083,0.2108,0.2087,0.2086,0.2102,0.2107,0.2122,0.2128,0.2123,0.2166,0.2166,0.219,0.2153,0.2184,0.2186,0.2187,0.2246,0.2253,0.2258,0,0,0,0,0,0.2095,0.2092,0.2098,0.2099,0.2088,0.211,0.2106,0.2109,0.2102,0.2128,0.2134,0.2129,0.2175,0.2167,0.2167,0.2192,0.2184,0.2185,0.2187,0.2244,0.2251,0.2258,0,0,0,0,0,0,0.2085,0.2094,0.2101,0.2102,0.213,0.2117,0.2117,0.2124,0.2139,0.2137,0.214,0.2147,0.2193,0.2179,0.217,0.2205,0.2177,0.2179,0.2221,0.2228,0.2233,0.225,0.2153,0,0,0,0,0,0.2083,0.2091,0.2107,0.2116,0.2123,0.2124,0.2126,0.2135,0.2147,0.2155,0.2173,0.2177,0.2188,0.2203,0.2211,0.2226,0.2234,0.2241,0.2246,0.2251,0.2264,0.2301,0.2312,0.2194,0.2194,0.2194,0,0,0.2083,0.2088,0.2094,0.2116,0.212,0.2136,0.2132,0.2148,0.2166,0.2158,0.2192,0.2205,0.2199,0.2227,0.2244,0.2226,0.229,0.2254,0.2258,0.2269,0.2305,0.2316,0.2327,0.2195,0.2195,0.2195,0,0,0.2089,0.2094,0.2104,0.2125,0.2146,0.2149,0.2169,0.2183,0.2199,0.2227,0.2228,0.2268,0.2274,0.2289,0.2288,0.2328,0.2325,0.2324,0.2363,0.2399,0.2409,0.2419,0.2449,0.246,0.2321,0.2321,0.2321,0,0.2086,0.2102,0.2115,0.213,0.2142,0.2165,0.2184,0.2195,0.223,0.2252,0.2255,0.2295,0.2302,0.2337,0.2355,0.2344,0.236,0.2338,0.2409,0.2418,0.2426,0.2455,0.2467,0.2324,0.2324,0.2323,0.2323,0,0.2101,0.2117,0.2125,0.2154,0.2174,0.2196,0.222,0.2252,0.2269,0.2291,0.235,0.2363,0.2394,0.2398,0.2387,0.2449,0.2439,0.2418,0.2395,0.2442,0.2469,0.248,0.2329,0.2327,0.2327,0.2326,0,0,0.209,0.2127,0.2133,0.2149,0.2185,0.2204,0.2238,0.2286,0.2321,0.2362,0.2414,0.2445,0.2472,0.2474,0.2477,0.2509,0.2585,0.2493,0.2493,0.253,0.2668,0.2578,0.2582,0.2578,0.258,0.2582,0.2663,0,0.2103,0.2127,0.2148,0.2186,0.2197,0.2232,0.2272,0.2317,0.2358,0.242,0.2449,0.2503,0.2491,0.2519,0.2552,0.2577,0.2617,0.2565,0.261,0.2611,0.2532,0.2592,0.2361,0.2407,0.2674,0.2676,0.2677,0,0.2108,0.2124,0.215,0.22,0.2211,0.2245,0.231,0.2351,0.2435,0.2473,0.2534,0.2564,0.2629,0.2606,0.2685,0.2653,0.2674,0.2688,0.2691,0.2595,0.2543,0.2401,0.2417,0.2696,0.2695,0.2693,0.2692,0,0.2083,0.2127,0.2146,0.2161,0.222,0.225,0.2295,0.2374,0.2415,0.252,0.2559,0.2641,0.2682,0.2725,0.2757,0.2731,0.2838,0.2797,0.274,0.2734,0.2539,0.2511,0.2866,0.2866,0.2866,0.2865,0.2865,0,0.2075,0.2093,0.214,0.2152,0.22,0.2244,0.2307,0.2376,0.2458,0.2522,0.259,0.2645,0.2717,0.2774,0.2794,0.2805,0.2869,0.2768,0.2755,0.2552,0.2526,0.2771,0.2758,0.2868,0.2868,0.2867,0.2867,0,0.204,0.207,0.2099,0.2162,0.2189,0.2225,0.2307,0.2351,0.2438,0.252,0.2555,0.2666,0.2745,0.2797,0.2882,0.284,0.2869,0.286,0.2616,0.2573,0.2731,0.2721,0.2796,0.2794,0.2792,0.279,0.2789,0,0.2016,0.2032,0.2099,0.2116,0.2147,0.22,0.2243,0.2343,0.2389,0.2526,0.2563,0.2671,0.2705,0.2781,0.2774,0.2787,0.286,0.2569,0.2467,0.2747,0.2728,0.2721,0.2714,0.2241,0.2235,0.223,0.2226,0,0.1986,0.2021,0.2044,0.2084,0.2127,0.2165,0.2234,0.2249,0.237,0.2424,0.2503,0.2535,0.2613,0.2512,0.2538,0.2519,0.254,0.2471,0.2845,0.2286,0.2227,0.2207,0.2218,0.2184,0.2189,0.2192,0.2194,0.2196,0.1966,0.1975,0.2016,0.2041,0.2099,0.2118,0.2101,0.2153,0.2197,0.2216,0.2344,0.2296,0.2321,0.2214,0.217,0.2149,0.2324,0.2197,0.221,0.2229,0.2141,0.2081,0.1996,0.1999,0.2001,0.2004,0.2006,0,0.1932,0.1943,0.1964,0.1988,0.2006,0.2068,0.2086,0.2016,0.1999,0.2029,0.2032,0.1841,0.1759,0.1806,0.1699,0.1699,0.1677,0.163,0.1573,0.1616,0.1655,0.1536,0.1231,0.1229,0.1226,0.1224,0,0,0.1914,0.1902,0.1899,0.1892,0.1911,0.1875,0.1854,0.177,0.1738,0.1622,0.1563,0.1624,0.1708,0.1423,0.1406,0.1295,0.144,0.1243,0.1865,0.1839,0.1874,0.1987,0.1854,0,0,0,0,0]},{"header":{"parameterUnit":"m.s-1","parameterCategory":2,"la1":30.2991,"la2":30.254,"lo1":-89.0895,"lo2":-89.0444,"dy":0.0017,"dx":0.0017,"nx":28,"ny":28,"refTime":"2025-12-17T09:00:00:Z","depth":"2","parameterNumber":3,"parameterNumberName":"V-component_of_CURRENTS"},"data":[0,0,0,0,0,0,0,0,0,0,0,0,0,0,0,0,0,0,0,0,0,0,0,0,0,0,0,0,0,0,0,0,0,0,0,0,0,0,0,0,0,0,0,0,0,0,0,0,0,0,0,0,0,0,0,0,0,0,0.0057,0.0056,0,0.0076,0.0076,0.0077,0.0026,0.0024,0.0022,0.002,-0.0099,-0.01,-0.0101,0,0,0,0,0,0,0,0,0,0,0,0,0,0.006,0.0061,0.0057,0.0056,0.0056,0.0076,0.0076,0.0077,0.0027,0.0024,0.0022,0.0019,-0.0098,-0.01,-0.0101,0,0,0,0,0,0,0,0,0,0,0,0,0,0.0072,0.0061,0.0057,0.003,0.0027,0.0075,0.0076,0.0077,0.0027,0.0024,0.0021,0.0018,-0.0098,-0.01,-0.0102,-0.0052,0,0,-0.0107,-0.0108,0,0,0,0,0,0,0,0,0.0071,0.0072,0.0034,0.0031,0.0029,0.0041,0.0034,0.0025,0.0028,0.0033,0.002,0.0017,-0.0066,-0.0071,-0.0051,-0.0057,-0.0062,-0.0108,-0.0109,-0.011,-0.011,0,0,0,0,0,0,0,0.007,0.0072,0.0069,0.0034,0.0031,0.0045,0.0043,0.0033,0.0002,0.0032,0.0027,0.0022,-0.0068,-0.0049,-0.0055,-0.0064,-0.0107,-0.0109,-0.011,-0.0111,-0.0142,-0.0141,0,0,0,0,0,0,0.0057,0.0071,0.0069,0.0069,0.0037,0.0046,0.0045,0.0044,0.0005,-0.0005,0.0025,0.002,-0.0044,-0.0052,-0.0059,-0.0093,-0.0109,-0.0111,-0.0112,-0.0142,-0.0142,-0.0141,0,0,0,0,0,0,0.0057,0.0057,0.0068,0.0066,0.0067,0.0048,0.005,0.0046,0.0031,-0.0,-0.0012,0.0008,-0.0047,-0.0057,-0.0103,-0.0095,-0.0112,-0.0114,-0.0142,-0.0142,-0.0141,-0.0103,0,0,0,0,0,0,0.0057,0.0057,0.0063,0.0065,0.0067,0.0064,0.0052,0.0049,0.0032,0.0025,-0.0018,-0.003,-0.005,-0.01,-0.0105,-0.0098,-0.0115,-0.0143,-0.0142,-0.0142,-0.0105,-0.0102,-0.0099,0,0,0,0,0,0.0058,0.0071,0.0063,0.0063,0.0072,0.0063,0.0065,0.0045,0.0034,0.0023,-0.0008,-0.003,-0.0099,-0.0101,-0.0107,-0.0101,-0.0143,-0.0142,-0.0142,-0.0106,-0.0102,-0.0099,0,0,0,0,0,0,0.0073,0.0067,0.0058,0.0068,0.0049,0.0051,0.0055,0.0039,0.0016,0.0009,-0.0029,-0.0043,-0.0081,-0.0093,-0.0095,-0.0107,-0.0122,-0.0123,-0.0094,-0.009,-0.0087,-0.0085,-0.0117,0,0,0,0,0,0.0082,0.0087,0.0072,0.0075,0.0073,0.0063,0.0062,0.0045,0.0024,0.0011,-0.0024,-0.005,-0.0069,-0.0088,-0.011,-0.0113,-0.0127,-0.0112,-0.0109,-0.0106,-0.0108,-0.0121,-0.012,-0.0139,-0.0139,-0.0139,0,0,0.0088,0.0085,0.0087,0.0079,0.0076,0.008,0.0055,0.0047,0.0048,0.0003,-0.0014,-0.0049,-0.0071,-0.0083,-0.0099,-0.0101,-0.0106,-0.0105,-0.0103,-0.0106,-0.012,-0.0119,-0.0117,-0.0138,-0.0138,-0.0138,0,0,0.0104,0.0101,0.0111,0.0102,0.0088,0.0087,0.0075,0.0061,0.0048,0.0031,0.0001,-0.0039,-0.0062,-0.008,-0.0087,-0.0078,-0.0095,-0.008,-0.0054,-0.0067,-0.0066,-0.0065,-0.007,-0.007,-0.007,-0.0069,-0.0069,0,0.0112,0.0123,0.0109,0.0116,0.0118,0.0086,0.0097,0.0093,0.0058,0.0052,0.002,-0.0019,-0.0056,-0.0058,-0.0061,-0.0072,-0.0078,-0.0066,-0.0063,-0.0062,-0.0062,-0.0068,-0.0068,-0.0068,-0.0068,-0.0068,-0.0068,0,0.0136,0.0143,0.0148,0.015,0.0149,0.015,0.0138,0.0126,0.0107,0.0094,0.0064,0.0018,-0.0007,-0.002,-0.0041,-0.0046,-0.0051,-0.0063,-0.0071,-0.0057,-0.0065,-0.0066,-0.0065,-0.0065,-0.0066,-0.0066,0,0,0.0161,0.0166,0.0167,0.0178,0.017,0.0174,0.018,0.0177,0.0187,0.0137,0.0142,0.0089,0.0053,0.0041,0.0009,-0.0011,-0.0021,-0.0033,-0.0034,-0.0036,-0.004,-0.004,-0.0041,-0.0029,-0.0029,-0.0029,-0.0043,0,0.0184,0.0212,0.0207,0.0231,0.0248,0.023,0.0239,0.023,0.0219,0.0211,0.0161,0.0141,0.0086,0.007,0.0043,0.0,-0.0023,-0.0016,-0.0055,-0.0057,-0.0057,-0.0042,-0.0029,-0.0039,-0.0044,-0.0044,-0.0044,0,0.0213,0.023,0.0264,0.0282,0.0288,0.0292,0.0313,0.0319,0.0303,0.0291,0.0262,0.0219,0.0181,0.0126,0.0062,0.0074,0.0014,-0.0028,-0.0029,-0.0045,-0.0058,-0.0057,-0.0041,-0.0046,-0.0046,-0.0046,-0.0046,0,0.0249,0.0271,0.0305,0.031,0.0323,0.0332,0.0336,0.0335,0.0355,0.0338,0.0343,0.0291,0.0269,0.0194,0.0101,0.0084,0.0034,0.0003,-0.0056,-0.0056,-0.0062,-0.0062,-0.0059,-0.0059,-0.0059,-0.0059,-0.0059,0,0.0284,0.0307,0.0321,0.0336,0.0371,0.0369,0.041,0.0399,0.0412,0.0452,0.0381,0.0402,0.0281,0.0237,0.0141,0.0057,0.0068,-0.005,-0.006,-0.0047,-0.0046,-0.007,-0.0071,-0.0059,-0.0059,-0.0059,-0.0059,0,0.0317,0.0326,0.0362,0.0381,0.0387,0.0412,0.0449,0.049,0.0482,0.0536,0.0528,0.0489,0.044,0.0322,0.0213,0.0117,0.0026,-0.0017,0.001,0.0003,-0.0068,-0.0067,-0.0079,-0.0079,-0.0079,-0.0079,-0.008,0,0.0345,0.0362,0.0394,0.043,0.0436,0.0479,0.0516,0.0517,0.0574,0.0606,0.0642,0.0593,0.0592,0.0435,0.0259,0.0101,0.0055,-0.0012,-0.006,-0.0062,-0.007,-0.0069,-0.0068,-0.005,-0.0049,-0.0049,-0.0049,0,0.0385,0.0386,0.042,0.0481,0.0522,0.0581,0.0633,0.0686,0.0721,0.0763,0.0823,0.0816,0.0667,0.0516,0.028,0.0166,0.0016,-0.0015,-0.0013,-0.0046,-0.0035,-0.0043,-0.0042,-0.0048,-0.0048,-0.0048,-0.0048,-0.0048,0.0417,0.0442,0.0479,0.0542,0.0591,0.0667,0.0727,0.0809,0.0887,0.0949,0.0954,0.0932,0.0752,0.0452,0.0264,0.0041,0.0042,-0.0058,-0.0058,-0.0059,-0.0052,-0.0042,-0.0054,-0.0055,-0.0055,-0.0055,-0.0055,0,0.0456,0.0482,0.0546,0.0613,0.0678,0.0685,0.0797,0.087,0.0979,0.1017,0.1051,0.0877,0.0706,0.0489,0.0166,-0.0018,-0.0043,-0.0085,-0.008,-0.0079,-0.0079,-0.0074,-0.0082,-0.0083,-0.0084,-0.0084,0,0,0.0478,0.0532,0.056,0.0662,0.0716,0.0793,0.0855,0.0951,0.1001,0.1048,0.1018,0.0983,0.0745,0.0506,0.0268,0.0085,0.0036,0.0045,0.0087,0.0122,0.0123,-0.0041,-0.003,0,0,0,0,0]}],[{"header":{"parameterUnit":"m.s-1","parameterCategory":2,"la1":30.2991,"la2":30.254,"lo1":-89.0895,"lo2":-89.0444,"dy":0.0017,"dx":0.0017,"nx":28,"ny":28,"refTime":"2025-12-17T09:00:00:Z","depth":"4","parameterNumber":2,"parameterNumberName":"U-component_of_CURRENTS"},"data":[0,0,0,0,0,0,0,0,0,0,0,0,0,0,0,0,0,0,0,0,0,0,0,0,0,0,0,0,0,0,0,0,0,0,0,0,0,0,0,0,0,0,0,0,0,0,0,0,0,0,0,0,0,0,0,0,0,0,0.1134,0.1135,0,0.1145,0.1145,0.1145,0.1194,0.1195,0.1196,0.1197,0.1253,0.1253,0.1254,0,0,0,0,0,0,0,0,0,0,0,0,0,0.1117,0.1118,0.1134,0.1135,0.1135,0.1145,0.1145,0.1145,0.1194,0.1195,0.1197,0.1198,0.1253,0.1253,0.1254,0,0,0,0,0,0,0,0,0,0,0,0,0,0.1125,0.1118,0.1134,0.1161,0.1163,0.1145,0.1145,0.1145,0.1193,0.1195,0.1197,0.1199,0.1253,0.1253,0.1254,0.122,0,0,0.1255,0.1255,0,0,0,0,0,0,0,0,0.1125,0.1126,0.1157,0.1159,0.1162,0.117,0.1159,0.1173,0.1193,0.1181,0.1197,0.1199,0.1228,0.1231,0.1227,0.1223,0.1225,0.1255,0.1256,0.1256,0.1256,0,0,0,0,0,0,0,0.1124,0.1125,0.1138,0.1157,0.116,0.1158,0.1162,0.1161,0.1195,0.1182,0.1186,0.1188,0.123,0.1227,0.1229,0.1226,0.1255,0.1256,0.1256,0.1256,0.1326,0.1327,0,0,0,0,0,0,0.1124,0.1125,0.1138,0.1138,0.1148,0.1157,0.1161,0.1165,0.1194,0.12,0.1186,0.119,0.1225,0.1229,0.1231,0.1298,0.1256,0.1256,0.1257,0.1324,0.1326,0.1328,0,0,0,0,0,0,0.1124,0.1125,0.1137,0.1132,0.1134,0.1156,0.116,0.1164,0.1196,0.1196,0.1204,0.1218,0.1227,0.1231,0.1268,0.1297,0.1256,0.1257,0.1323,0.1325,0.1327,0.1364,0,0,0,0,0,0,0.1123,0.1125,0.1141,0.1132,0.1134,0.1156,0.1158,0.1163,0.1192,0.1199,0.1225,0.123,0.1228,0.1267,0.1269,0.1297,0.1257,0.1321,0.1324,0.1326,0.1361,0.1367,0.1373,0,0,0,0,0,0.1123,0.1133,0.1141,0.1144,0.1151,0.1157,0.1158,0.1179,0.1193,0.1213,0.1234,0.1231,0.1287,0.1269,0.127,0.1299,0.1319,0.1323,0.1326,0.1358,0.1366,0.1372,0,0,0,0,0,0,0.1133,0.1139,0.1148,0.1161,0.1173,0.1166,0.1186,0.1194,0.1223,0.1239,0.1242,0.1248,0.1291,0.1291,0.1271,0.133,0.1306,0.131,0.133,0.1337,0.1343,0.1338,0.1258,0,0,0,0,0,0.114,0.1156,0.1158,0.1173,0.1181,0.1188,0.1198,0.121,0.1225,0.1242,0.1257,0.1279,0.1297,0.1317,0.1328,0.1355,0.1358,0.1378,0.1384,0.1389,0.1388,0.1427,0.1436,0.1339,0.1339,0.1339,0,0,0.1146,0.1154,0.1162,0.1177,0.1188,0.1198,0.12,0.1224,0.1241,0.1241,0.1282,0.1297,0.1309,0.1343,0.1363,0.1353,0.1419,0.1394,0.1398,0.1393,0.1431,0.144,0.1449,0.1342,0.1341,0.1341,0,0,0.1156,0.1177,0.1191,0.1203,0.1226,0.1227,0.1242,0.1254,0.1277,0.1307,0.1316,0.135,0.1377,0.139,0.14,0.1445,0.1446,0.1461,0.1489,0.1528,0.1535,0.1542,0.1556,0.1564,0.1468,0.1468,0.1468,0,0.117,0.118,0.1197,0.1213,0.1223,0.1244,0.1256,0.1276,0.1302,0.1321,0.1334,0.1385,0.1396,0.1433,0.1455,0.1457,0.1475,0.1458,0.1534,0.1541,0.1548,0.1561,0.1569,0.147,0.147,0.147,0.147,0,0.1178,0.1199,0.121,0.1236,0.1251,0.1268,0.1289,0.1322,0.135,0.1363,0.1418,0.1437,0.1471,0.1484,0.1483,0.1538,0.1535,0.1533,0.1512,0.1559,0.157,0.1578,0.1473,0.1473,0.1472,0.1471,0,0,0.1175,0.121,0.1217,0.1231,0.1264,0.1273,0.1314,0.1345,0.1381,0.142,0.1462,0.15,0.1522,0.1534,0.1547,0.1579,0.1637,0.1583,0.1584,0.1589,0.1717,0.1611,0.1609,0.1659,0.1661,0.1662,0.1704,0,0.118,0.1206,0.1222,0.125,0.1261,0.1295,0.1327,0.1364,0.1408,0.1457,0.1494,0.1541,0.1539,0.1572,0.1604,0.163,0.1661,0.1625,0.1676,0.1677,0.1571,0.1616,0.1668,0.171,0.1712,0.1713,0.1714,0,0.1175,0.1194,0.1219,0.1254,0.1265,0.1293,0.1351,0.1384,0.1455,0.1495,0.1553,0.1583,0.1639,0.1634,0.1704,0.1688,0.1708,0.1721,0.1723,0.1614,0.1586,0.1655,0.1728,0.1727,0.1726,0.1725,0.1724,0,0.1147,0.1188,0.1208,0.1221,0.1267,0.13,0.1336,0.1402,0.1442,0.1533,0.1576,0.1639,0.1687,0.1727,0.1758,0.1747,0.1824,0.1809,0.1728,0.172,0.1785,0.1777,0.1859,0.1859,0.1859,0.1859,0.1859,0,0.1124,0.1145,0.1207,0.1217,0.1252,0.1296,0.1352,0.1402,0.1484,0.1525,0.1603,0.1644,0.172,0.1765,0.1781,0.1775,0.1848,0.1733,0.1728,0.18,0.1793,0.179,0.1782,0.186,0.186,0.186,0.1859,0,0.1082,0.1121,0.115,0.1215,0.1237,0.1269,0.1353,0.1389,0.1485,0.1545,0.1579,0.1673,0.1731,0.1782,0.1844,0.1795,0.1805,0.1786,0.1855,0.1852,0.1667,0.166,0.1689,0.1686,0.1683,0.1681,0.1679,0,0.1055,0.107,0.1142,0.1163,0.1199,0.1257,0.1286,0.1379,0.1414,0.1541,0.1553,0.1654,0.17,0.1697,0.1764,0.1784,0.1768,0.1751,0.1704,0.166,0.1652,0.165,0.1647,0.1674,0.1674,0.1673,0.1672,0,0.1008,0.1053,0.1083,0.1124,0.1162,0.1185,0.1241,0.126,0.1357,0.1459,0.1492,0.1528,0.1587,0.1627,0.1659,0.167,0.1746,0.1721,0.1726,0.1682,0.1642,0.1637,0.1637,0.1663,0.1664,0.1665,0.1665,0,0.0983,0.0996,0.1046,0.1069,0.111,0.11,0.1137,0.117,0.1214,0.1349,0.1357,0.1466,0.1562,0.1569,0.1599,0.1603,0.1577,0.1513,0.1528,0.154,0.1473,0.14,0.1342,0,0,0,0,0,0.0952,0.0956,0.098,0.0992,0.1027,0.1042,0.1094,0.1134,0.1228,0.1212,0.1282,0.133,0.1381,0.1442,0.1418,0.1542,0.1587,0.1507,0.1521,0.1609,0.162,0.1556,0,0,0,0,0,0,0.0928,0.0959,0.0957,0.092,0.0915,0.0928,0.0956,0.1016,0.1012,0.1124,0.1159,0.1248,0.1321,0.1386,0.1395,0.1413,0.1392,0.1581,0.1577,0.1602,0.1613,0.1622,0.156,0,0,0,0,0]},{"header":{"parameterUnit":"m.s-1","parameterCategory":2,"la1":30.2991,"la2":30.254,"lo1":-89.0895,"lo2":-89.0444,"dy":0.0017,"dx":0.0017,"nx":28,"ny":28,"refTime":"2025-12-17T09:00:00:Z","depth":"4","parameterNumber":3,"parameterNumberName":"V-component_of_CURRENTS"},"data":[0,0,0,0,0,0,0,0,0,0,0,0,0,0,0,0,0,0,0,0,0,0,0,0,0,0,0,0,0,0,0,0,0,0,0,0,0,0,0,0,0,0,0,0,0,0,0,0,0,0,0,0,0,0,0,0,0,0,0.022,0.022,0,0.0219,0.0219,0.0219,0.0207,0.0206,0.0206,0.0206,0.0183,0.0183,0.0182,0,0,0,0,0,0,0,0,0,0,0,0,0,0.0202,0.0202,0.022,0.022,0.022,0.0219,0.0219,0.0219,0.0207,0.0206,0.0206,0.0205,0.0183,0.0183,0.0182,0,0,0,0,0,0,0,0,0,0,0,0,0,0.0207,0.0203,0.022,0.0213,0.0212,0.0219,0.0219,0.0219,0.0207,0.0206,0.0206,0.0205,0.0183,0.0183,0.0182,0.0192,0,0,0.0181,0.0181,0,0,0,0,0,0,0,0,0.0207,0.0208,0.0214,0.0214,0.0213,0.0212,0.0204,0.0209,0.0207,0.021,0.0206,0.0205,0.019,0.0189,0.0192,0.0191,0.019,0.0181,0.0181,0.0181,0.0181,0,0,0,0,0,0,0,0.0207,0.0208,0.0221,0.0214,0.0213,0.0207,0.0207,0.0205,0.0204,0.021,0.0209,0.0207,0.019,0.0193,0.0191,0.019,0.0181,0.0181,0.0181,0.0181,0.0177,0.0177,0,0,0,0,0,0,0.0206,0.0208,0.0221,0.0221,0.0207,0.0207,0.0208,0.0213,0.0204,0.0202,0.0208,0.0207,0.0193,0.0192,0.019,0.0199,0.0181,0.0181,0.018,0.0177,0.0177,0.0177,0,0,0,0,0,0,0.0206,0.0208,0.0221,0.0213,0.0214,0.0208,0.0215,0.0214,0.0213,0.0203,0.02,0.0208,0.0193,0.0191,0.0188,0.0198,0.018,0.018,0.0176,0.0177,0.0177,0.0218,0,0,0,0,0,0,0.0206,0.0208,0.0213,0.0213,0.0214,0.0224,0.0215,0.0214,0.0213,0.0212,0.0202,0.02,0.0192,0.0189,0.0188,0.0197,0.018,0.0176,0.0176,0.0177,0.0216,0.0219,0.0222,0,0,0,0,0,0.0205,0.0214,0.0214,0.0215,0.0222,0.0224,0.0224,0.0218,0.0214,0.0216,0.0209,0.02,0.0189,0.0189,0.0187,0.0197,0.0176,0.0176,0.0177,0.0215,0.0219,0.0222,0,0,0,0,0,0,0.0209,0.0214,0.0213,0.0223,0.0223,0.0222,0.0225,0.022,0.0218,0.0216,0.0205,0.0202,0.0202,0.0192,0.0192,0.0195,0.018,0.018,0.0209,0.0213,0.0216,0.0224,0.0179,0,0,0,0,0,0.0213,0.0222,0.0222,0.023,0.0232,0.0229,0.023,0.0225,0.0222,0.022,0.0216,0.0208,0.0203,0.0202,0.0195,0.0201,0.018,0.0204,0.0207,0.0209,0.0214,0.0189,0.0191,0.0178,0.0178,0.0178,0,0,0.0219,0.0221,0.0227,0.0231,0.0233,0.0241,0.0228,0.023,0.0237,0.0218,0.0229,0.0218,0.0205,0.021,0.0209,0.0204,0.0201,0.021,0.0212,0.0215,0.019,0.0191,0.0192,0.0178,0.0178,0.0178,0,0,0.0231,0.0235,0.0246,0.0247,0.0247,0.0248,0.0249,0.0249,0.025,0.0254,0.0243,0.0239,0.0234,0.0231,0.0227,0.0241,0.0214,0.0235,0.0262,0.0238,0.0239,0.024,0.0212,0.021,0.024,0.024,0.024,0,0.0236,0.0253,0.0249,0.0257,0.0264,0.0253,0.0268,0.0267,0.0266,0.0272,0.0259,0.0255,0.0245,0.0253,0.0258,0.0249,0.0227,0.0253,0.0243,0.0243,0.0243,0.0214,0.0212,0.0242,0.0242,0.0242,0.0242,0,0.0256,0.0269,0.0275,0.0287,0.0293,0.0303,0.0303,0.0307,0.0305,0.0305,0.0308,0.0293,0.0291,0.0286,0.0278,0.0278,0.0259,0.0247,0.0236,0.0247,0.0216,0.0212,0.0245,0.0244,0.0244,0.0243,0,0,0.0271,0.0288,0.0291,0.0307,0.0312,0.0322,0.0334,0.0348,0.0362,0.0349,0.0365,0.0354,0.0342,0.0337,0.0323,0.0306,0.0287,0.0281,0.0279,0.0258,0.0229,0.0206,0.0199,0.0271,0.0271,0.0271,0.0206,0,0.0291,0.0318,0.0322,0.0354,0.0372,0.037,0.0386,0.0393,0.0395,0.0405,0.0382,0.0388,0.0362,0.0363,0.0341,0.0304,0.028,0.0306,0.0218,0.0215,0.0197,0.0195,0.027,0.0204,0.0203,0.0202,0.0202,0,0.031,0.0329,0.0364,0.0398,0.0407,0.0424,0.0455,0.0468,0.0471,0.047,0.0461,0.0441,0.0423,0.0393,0.0326,0.0342,0.0289,0.0252,0.0249,0.0211,0.0186,0.019,0.0194,0.0195,0.0195,0.0196,0.0196,0,0.0328,0.0362,0.0396,0.0405,0.0436,0.0456,0.0477,0.0491,0.0515,0.0513,0.0521,0.0486,0.0472,0.0404,0.0325,0.0324,0.024,0.0227,0.0153,0.015,0.0173,0.0173,0.0171,0.0171,0.0171,0.0171,0.0171,0,0.0347,0.0376,0.0409,0.0427,0.0475,0.0487,0.0538,0.0546,0.0568,0.0597,0.0559,0.0559,0.0473,0.0414,0.0335,0.0232,0.0243,0.0156,0.0133,0.0191,0.0193,0.017,0.017,0.0169,0.0169,0.017,0.017,0,0.0358,0.0378,0.0421,0.0464,0.0484,0.0519,0.0582,0.0615,0.0626,0.0658,0.0659,0.0616,0.0534,0.0437,0.0325,0.0249,0.0153,0.0111,0.018,0.0162,0.0075,0.0079,0.0023,0.0022,0.0021,0.002,0.0019,0,0.0368,0.0389,0.0448,0.048,0.0504,0.0562,0.0603,0.0641,0.0677,0.069,0.0702,0.0638,0.0591,0.0414,0.031,0.0147,0.0121,0.0065,0.007,0.0077,0.006,0.0066,0.007,0.0017,0.0017,0.0017,0.0016,0,0.0386,0.0404,0.0437,0.05,0.0553,0.0615,0.0675,0.0703,0.0741,0.0755,0.0727,0.0637,0.0542,0.0408,0.0279,0.0165,0.0101,0.0053,0.0054,0.0058,0.0069,0.0055,0.0061,0.0012,0.0013,0.0013,0.0013,0,0.0398,0.0419,0.046,0.0517,0.0583,0.0641,0.0677,0.0713,0.0747,0.0757,0.0746,0.0644,0.0594,0.0416,0.0302,0.0183,0.015,0.0105,0.0103,0.0106,0.0147,0.0174,0.013,0,0,0,0,0,0.0408,0.0427,0.0476,0.0534,0.0599,0.0638,0.0712,0.0742,0.0778,0.0759,0.0754,0.0662,0.0487,0.042,0.0295,0.0274,0.0127,0.0123,0.0073,-0.0009,-0.0005,0.0027,0,0,0,0,0,0,0.0411,0.045,0.0468,0.0538,0.0579,0.0653,0.0698,0.0725,0.0717,0.0732,0.0644,0.0615,0.0451,0.0552,0.0286,0.0253,0.02,0.0051,0.0048,-0.0012,-0.0008,-0.0004,0.003,0,0,0,0,0]}]]